Hourly Data Report for June 17, 2002

SHERBROOKE A
QUEBEC

45°26'00.000" N
71°41'00.000" W
241.40 m
7028124
71610
YSC

Download Data

Hourly Data (June 2002)
Hourly Data Report for June 17, 2002
TIME
LST
Temp Definition
°C
Dew Point Definition
°C
Rel Hum Definition
%
Precip. Amount Definition
mm

Wind Dir Definition
10's deg

Wind Spd Definition
km/h
Visibility Definition
km
Stn Press Definition
kPa
Hmdx Definition


Wind Chill Definition


Weather Definition


00:00 11.4 10.9 97     0 15.0 97.70     Rain
01:00 11.4 10.9 97     0 15.0 97.69     Rain
02:00 11.5 11.2 98   16 4 3.7 97.68     Rain
03:00 10.2 10.0 99     0 2.3 97.71      
04:00 10.3 10.0 98     0 15.0 97.74      
05:00 11.1 10.9 99     0 9.7 97.78      
06:00 11.5 11.2 98     0 15.0 97.81      
07:00 12.6 12.2 97     0 19.3 97.85     Rain
08:00 13.5 12.7 95   19 7 16.1 97.89     Cloudy
09:00 14.3 12.7 90   23 17 16.1 97.89     Drizzle
10:00 15.1 12.1 82   24 20 19.3 97.91     Mostly Cloudy
11:00 15.3 11.3 77   24 9 19.3 97.94     Cloudy
12:00 16.5 11.5 72   28 15 24.1 97.92     Mostly Cloudy
13:00 16.2 11.9 76   23 11 16.1 97.95     Rain Showers
14:00 17.8 12.7 72   17 7 19.3 97.95     Mostly Cloudy
15:00 17.0 13.2 78   30 6 24.1 97.98     Mostly Cloudy
16:00 17.9 11.0 64   26 15 24.1 97.99     Mostly Cloudy
17:00 17.9 11.3 65   25 11 15.0 98.04      
18:00 15.3 12.3 82   29 7 15.0 98.08      
19:00 13.0 10.0 82   28 7 15.0 98.13      
20:00 13.1 10.5 84   23 6 15.0 98.21     Rain
21:00 12.4 11.5 94   17 6 8.0 98.26     Rain
22:00 12.4 11.3 93   20 6 15.0 98.28      
23:00 12.3 11.0 92   21 4 15.0 98.33      

Notes on Data Quality.

Legend

  • E = Estimated
  • M = Missing
  • NA = Not Available*
  • [empty] = Indicates an unobserved value
Date modified: